#timestamp,LO_Frequency,Hit,StdDev 
1514178015.6,286046999.7,N
1514178035.4,286047003.9,N
1514178055.3,286047001.4,N
1514178075.1,286047002.3,N
1514178095.8,286047004.4,N
1514178115.7,286046996.8,N
1514178135.5,286046998.8,N
1514178155.4,286046997.2,N
1514178175.2,286046999.5,N
1514178195.0,286046997.0,N
1514178195.9,286046997.0,N
1514178215.8,286046998.2,N
1514178235.6,286046998.9,N
1514178255.4,286047000.2,N
1514178275.3,286047001.1,N
1514178295.1,286047000.7,N
1514178315.9,286046998.2,N
1514178335.7,286046997.3,N
1514178355.5,286046998.9,N
1514178375.4,286046999.3,N
1514178395.2,286047000.3,N
1514178415.0,286047000.3,N
1514178416.0,286047000.3,N
1514178435.8,286047000.9,N
1514178455.6,286047002.4,N
1514178475.5,286047002.0,N
1514178495.3,286047002.2,N
1514178515.1,286047000.2,N
1514178535.9,286047000.3,N
1514178555.7,286046998.9,N
1514178575.6,286046997.1,N
1514178595.4,286046997.0,N
1514178615.2,286046996.5,N
1514178635.1,286047000.0,N
1514178636.0,286047000.0,N
1514178655.8,286047000.0,N
1514178675.7,286047000.8,N
1514178695.5,286046997.4,N
1514178715.3,286046997.4,N
1514178735.2,286047000.3,N
1514178755.9,286046999.9,N
1514178775.7,286047001.0,N
1514178795.6,286047002.8,N
1514178815.4,286047002.3,N
1514178835.3,286047002.6,N
1514178855.1,286047002.5,N
1514178856.0,286047002.5,N
1514178875.8,286047002.2,N
1514178895.7,286047000.3,N
1514178915.5,286047000.2,N
1514178935.4,286047002.4,N
1514178955.2,286046999.7,N
1514178975.0,286047000.3,N
1514178975.9,286047000.3,N
1514178995.8,286046998.7,N
1514179015.6,286046998.7,N
1514179035.4,286046997.8,N
1514179055.3,286046995.3,N
1514179075.1,286046997.5,N
1514179095.9,286046998.1,N
1514179115.7,286047000.2,N
1514179135.5,286046998.6,N
1514179155.4,286046996.6,N
1514179175.2,286047002.7,N
1514179195.1,286047001.4,N
1514179196.0,286047001.4,N
1514179215.8,286047003.2,N
1514179235.6,286047005.7,N
1514179255.5,286047001.8,N
1514179275.3,286046999.7,N
1514179295.1,286047001.9,N
1514179315.9,286047002.3,N
1514179335.7,286047001.9,N
1514179355.6,286047003.4,N
1514179375.4,286047005.9,N
1514179395.2,286047004.3,N
1514179415.1,286047004.2,N
1514179416.0,286047004.2,N
1514179435.8,286047001.4,N
1514179485.7,286047002.4,E
1514179495.6,286046999.8,N
1514179515.4,286047002.4,P
1514179535.3,286046999.9,N
1514179555.1,286046998.2,N
1514179575.9,286047001.2,N
1514179595.7,286047002.8,N
1514179615.5,286047000.3,N
1514179635.4,286046997.1,N
1514179655.2,286046993.5,Y
1514179675.1,286046993.3,P
1514179676.0,286046993.3,N
1514179695.8,286046995.2,N
1514179715.6,286046993.3,N
1514179735.5,286046996.1,N
1514179755.3,286046996.2,N
1514179775.2,286046993.3,N
1514179795.9,286046993.8,N
1514179815.7,286046991.9,Y
1514179835.6,286046997.3,P
1514179855.4,286046999.0,N
1514179875.3,286046998.9,N
1514179895.1,286047000.5,N
1514179896.0,286047000.5,N
1514179915.8,286046996.5,N
1514179935.7,286047000.5,N
1514179955.5,286047002.4,N
1514179975.3,286046999.7,N
1514179995.2,286047001.9,N
1514180015.0,286047002.1,N
1514180015.9,286047002.1,N
1514180035.8,286047004.4,N
1514180055.6,286047002.6,N
1514180075.4,286047004.3,N
1514180095.3,286047004.4,N
1514180115.1,286047004.2,N
1514180135.9,286047003.6,N
1514180155.7,286047001.4,N
1514180175.5,286047001.8,N
1514180195.4,286047001.5,N
1514180215.2,286047003.7,N
1514180235.0,286047002.8,N
1514180236.0,286047002.8,N
1514180255.8,286047002.1,N
1514180275.6,286047003.3,N
1514180295.5,286047006.9,N
1514180315.3,286047005.1,N
1514180335.1,286047005.2,N
1514180355.9,286047003.8,N
1514180375.7,286047003.4,N
1514180395.6,286047005.8,N
1514180415.4,286047006.4,N
1514180435.2,286047005.5,N
1514180455.1,286047003.3,N
1514180456.0,286047003.3,N
1514180475.8,286047004.9,N
1514180495.7,286047004.9,Y
1514180515.5,286047004.3,P
1514180535.3,286047002.6,P
1514180555.2,286047000.6,N
1514180575.0,286046999.0,N
1514180575.9,286046999.0,N
1514180595.8,286046998.4,N
1514180615.6,286046998.7,N
1514180635.4,286047000.0,N
1514180655.3,286046998.3,N
1514180675.1,286046999.2,N
1514180695.8,286046996.8,N
1514180715.7,286046998.7,N
1514180735.5,286047002.8,N
1514180755.4,286047000.2,N
1514180775.2,286046998.7,N
1514180795.0,286046997.1,N
1514180795.9,286046997.1,N
1514180815.8,286046997.2,N
1514180835.6,286047001.2,N
1514180855.5,286046999.8,N
1514180875.3,286047000.4,N
1514180895.1,286047000.1,N
1514180915.9,286047000.4,N
1514180935.7,286047001.0,N
1514180955.6,286047000.6,N
1514180975.4,286047002.3,N
1514180995.2,286047002.5,N
1514181015.1,286047002.7,N
1514181016.0,286047002.7,N
1514181035.8,286046998.4,N
1514181055.6,286046998.2,N
1514181075.5,286047000.1,N
1514181095.3,286047001.6,N
1514181115.2,286047001.6,N
1514181135.9,286047001.0,N
1514181155.7,286046998.1,N
1514181175.6,286047001.2,N
1514181195.4,286046998.1,N
1514181215.3,286047000.9,N
1514181235.1,286046998.5,N
1514181236.0,286046998.5,N
1514181255.8,286046997.2,N
1514181275.7,286046996.7,N
1514181295.5,286046995.2,N
1514181315.3,286046996.2,N
1514181335.2,286046995.2,N
1514181355.0,286046997.4,N
1514181355.9,286046997.4,N
1514181375.8,286046999.0,N
1514181395.6,286046998.3,N
1514181415.4,286046995.0,N
1514181435.3,286046995.7,N
1514181455.1,286046997.3,N
1514181475.9,286046999.4,N
1514181495.7,286046998.9,N
1514181515.5,286046998.6,N
1514181535.4,286046999.1,N
1514181555.2,286046998.9,N
1514181575.0,286047000.5,N
1514181576.0,286047000.5,N
1514181595.8,286047002.8,N
